Regional Weather Roundup
Issued by NWS Kansas City/Pleasant Hill, MO

Home | Current Version | Previous Version | Text Only | Print | Product List | Glossary On
Versions: 1 2 3 4 5 6 7 8 9 10 11 12 13 14 15 16 17 18 19 20 21 22 23 24 25 26 27 28 29 30 31 32 33 34 35 36 37 38 39 40 41 42 43 44 45 46 47 48 49 50
000
ASUS43 KEAX 210411
RWREAX

WEATHER ROUNDUP FOR EASTERN KANSAS AND NORTHWEST MISSOURI
NATIONAL WEATHER SERVICE KANSAS CITY/PLEASANT HILL MO
1000 PM CST SAT DEC 20 2014

KSZ040-057-103>105-MOZ028-029-037-043-210500-
...KANSAS CITY METROPOLITAN AREA...

CITY           SKY/WX    TMP DP  RH WIND       PRES   REMARKS
K.C. INTL      CLOUDY    35  33  92 S9        30.12S WCI  28
K.C. DOWNTOWN  CLEAR     38  33  82 S6        30.14S WCI  33
LEES SUMMIT    PTCLDY    37  32  82 S12       30.14S WCI  29
OLATHE - IXD   PTCLDY    35  33  92 S13       30.13F WCI  26
OLATHE - OJC   CLEAR     34  32  92 S10       30.12F FOG     WCI  26
LAWRENCE       PTCLDY    36  33  89 S7        30.13S WCI  30

$$

MOZ001>008-011>017-020>025-030>033-038>040-044>046-053-054-210500-
...NORTHERN AND CENTRAL MISSOURI...

CITY           SKY/WX    TMP DP  RH WIND       PRES   REMARKS
ST. JOSEPH     MOCLDY    37  34  89 S9        30.11S WCI  30
MOSBY          PTCLDY    36  34  93 SE5       30.15S WCI  32
WARRENSBURG    PTCLDY    34  32  93 SE6       30.17S WCI  29
WHITEMAN AFB   CLOUDY    39  35  85 S7        30.17S WCI  34
CLINTON        CLOUDY    43  36  75 S7        30.19S
SEDALIA        CLOUDY    41  35  79 S9        30.19S
WARSAW         NOT AVBL
MARSHALL       CLOUDY    41  37  87 S3        30.19S
CHILLICOTHE      N/A     40  35  83 S10G18    30.16F WCI  33
MOBERLY        CLOUDY    39  34  81 S5        30.19F
KIRKSVILLE     CLOUDY    38  37  97 S9        30.17S FOG     WCI  31

$$

MOZ041-047>049-056>058-063>065-088>090-097-210500-
...EASTERN AND SOUTHERN MISSOURI...

CITY           SKY/WX    TMP DP  RH WIND       PRES   REMARKS
ST. LOUIS INTL CLOUDY    42  33  70 SE9       30.24F
SPIRIT OF STL  CLOUDY    41  34  76 S3        30.23S
COLUMBIA       CLOUDY    40  36  86 S6        30.20S
JEFFERSON CITY CLOUDY    42  34  73 S6        30.22S
MEXICO         CLOUDY    41  41 100 S5        30.20S
HANNIBAL       CLOUDY    39  34  81 SE5       30.20F
ROLLA          CLOUDY    39  34  82 S9        30.19S WCI  33
LEBANON        CLOUDY    41  36  81 S5        30.20R
OSAGE BEACH    CLOUDY    41  34  75 S8        30.20S
SPRINGFIELD    CLOUDY    41  37  86 S6        30.18S
BRANSON        CLOUDY    41  39  93 CALM      30.21S
NEVADA         CLOUDY    41  36  81 S8        30.19S
JOPLIN         CLOUDY    42  35  76 S10       30.18F
WEST PLAINS    CLOUDY    41  36  82 S3        30.22S

$$

IAZ060-094-KSZ022-034>040-054-083-096-NEZ052-066-093-210500-
...KANSAS...SOUTHEAST NEBRASKA AND IOWA...

CITY           SKY/WX    TMP DP  RH WIND       PRES   REMARKS
TOPEKA         PTCLDY   N/A N/A N/A S7        30.11S
MANHATTAN      PTCLDY    37  35  92 SW3       30.07F
EMPORIA        PTCLDY    35  33  92 S12       30.09F WCI  27
CHANUTE        CLEAR     34  32  92 S7        30.16S WCI  28
WICHITA        CLOUDY    43  37  79 S14       30.09F
OMAHA          CLOUDY    34  33  96 SE9       30.04F FOG     WCI  27
LINCOLN        CLOUDY    37  36  96 S7        30.02F FOG     WCI  32
FALLS CITY     PTCLDY    33  31  92 SE6       30.06F FOG     WCI  28
LAMONI         CLOUDY    36  36 100 S9        30.10S FOG     WCI  29
DES MOINES     CLOUDY    36  34  92 SE10      30.10F FOG     WCI  28

$$




USA.gov is the U.S. government's official web portal to all federal, state and local government web resources and services.